This is the latest recevied weather packets stored in our database for station/object N7CEE-2. If no packets are shown the sender has not sent any weather packets the latest 10 day(s).
| Time | Temp. | Humidity | Pressure | Rain* | Wind** | Luminosity | Snow |
|---|---|---|---|---|---|---|---|
| 1777987977 | 17.78° C | 68% | 1013.9 hPa | 0 mm | - | 50 W/m² | - |
| 1777987672 | 17.78° C | 68% | 1013.9 hPa | 0 mm | - | 50 W/m² | - |
| 1777987370 | 17.78° C | 67% | 1013.6 hPa | 0 mm | - | 49 W/m² | - |
| 1777987067 | 17.78° C | 66% | 1013.8 hPa | 0 mm | - | 32 W/m² | - |
| 1777986764 | 17.22° C | 66% | 1013.9 hPa | 0 mm | - | 28 W/m² | - |
| 1777986462 | 17.22° C | 70% | 1013.7 hPa | 0 mm | - | 20 W/m² | - |
| 1777986160 | 17.22° C | 70% | 1013.8 hPa | 0 mm | - | 17 W/m² | - |
| 1777985857 | 17.22° C | 70% | 1013.6 hPa | 0 mm | - | 13 W/m² | - |
| 1777985554 | 17.22° C | 70% | 1013.5 hPa | 0 mm | - | 9 W/m² | - |
| 1777985251 | 17.22° C | 70% | 1013.6 hPa | 0 mm | - | 6 W/m² | - |
| 1777984948 | 17.22° C | 69% | 1013.6 hPa | 0 mm | - | 4 W/m² | - |
| 1777984643 | 17.22° C | 69% | 1013.5 hPa | 0 mm | - | 3 W/m² | - |
| 1777984340 | 17.78° C | 68% | 1013.1 hPa | 0 mm | - | 1 W/m² | - |
| 1777984037 | 17.78° C | 68% | 1013.3 hPa | 0 mm | - | 1 W/m² | - |
| 1777983734 | 17.22° C | 67% | 1013.4 hPa | 0 mm | - | 0 W/m² | - |
| 1777983430 | 17.22° C | 68% | 1013.3 hPa | 0 mm | - | 0 W/m² | - |
| 1777983127 | 17.22° C | 68% | 1013.2 hPa | 0 mm | - | 0 W/m² | - |
| 1777982824 | 17.22° C | 69% | 1013.2 hPa | 0 mm | - | 0 W/m² | - |
| 1777982520 | 17.22° C | 69% | 1013 hPa | 0 mm | - | 0 W/m² | - |
| 1777982213 | 17.22° C | 69% | 1013.2 hPa | 0 mm | - | 0 W/m² | - |
| 1777981911 | 17.22° C | 69% | 1013.1 hPa | 0 mm | - | 0 W/m² | - |
| 1777981608 | 17.78° C | 69% | 1013.2 hPa | 0 mm | - | 0 W/m² | - |
| 1777981304 | 17.78° C | 70% | 1013 hPa | 0 mm | - | 0 W/m² | - |
| 1777981001 | 17.78° C | 70% | 1012.9 hPa | 0 mm | - | 0 W/m² | - |
| 1777980697 | 17.78° C | 69% | 1012.8 hPa | 0 mm | - | 0 W/m² | - |
* Rain latest hour (hover to see other rain measurements)
** Current wind speed in m/s (hover to see current wind gust speed)